Dewpoint
58 57 55 54 54 56 56 57 57 58 59 59 59 59 59 59 59 60 61 60 59 60 61 60 60 60 60 58 57 60 56 41 35 33 33 38 48 59 60 61 61 59 58 51 26 16 15 13 12 13 20 19 25 18 22 18 29 31 27 22 13 13 12 13 10 16 19 14 14 13 11 13 13 15 15 20 19 18 18 17 18 20 21 18 19 21 25 26
58 56 55 54 54 56 57 57 57 58 58 59 58 58 58 60 60 61 61 62 62 61 61 61 61 60 60 59 59 56 48 43 34 30 32 45 58 60 59 62 61 59 53 34 29 20 14 13 14 14 17 14 28 18 19 18 29 27 26 24 16 16 12 11 11 15 12 13 13 13 11 14 14 14 16 17 17 18 17 17 18 16 18 19 20 21 24 26
57 57 55 56 56 57 58 58 58 58 58 59 58 58 59 61 60 59 61 62 62 62 61 61 60 60 60 59 59 58 48 42 36 24 29 54 57 59 59 59 61 58 41 36 39 27 19 16 18 15 15 13 13 14 16 13 17 22 22 14 18 21 14 16 17 16 15 14 12 10 15 17 18 16 21 17 15 15 15 16 17 17 16 17 18 24 29 31
58 57 56 58 58 58 58 58 58 58 58 58 58 58 59 61 60 59 59 61 59 61 61 61 60 60 60 59 60 50 46 42 35 31 32 53 56 58 59 58 60 58 48 44 40 33 23 20 22 15 18 13 17 15 10 13 6 12 16 17 15 15 13 14 18 18 16 12 11 11 16 16 17 16 18 17 10 7 9 15 15 15 16 17 17 28 32 31
58 58 58 58 58 58 58 58 58 57 57 57 58 58 60 59 59 60 61 61 61 61 60 60 59 60 60 58 58 46 40 27 31 34 34 57 58 58 58 58 60 49 39 34 30 32 26 25 28 24 13 9 21 11 8 13 18 17 14 15 16 15 12 14 16 21 17 17 15 14 13 13 17 16 16 13 10 6 9 11 15 16 15 15 23 27 32 30
57 58 58 58 58 58 58 58 58 57 58 58 58 59 60 60 60 59 61 61 61 58 59 61 58 57 58 58 48 49 32 10 29 33 50 57 58 57 58 57 57 46 39 33 33 34 31 30 20 20 16 11 11 5 8 12 16 6 14 16 17 14 11 14 19 21 15 16 14 14 16 18 15 14 15 15 14 11 14 15 13 13 14 14 28 31 31 31
57 57 57 57 58 58 58 57 57 58 57 58 59 59 60 60 60 59 60 60 61 59 59 59 60 59 56 58 48 39 31 26 35 37 51 55 56 54 56 51 48 36 35 35 38 30 37 26 15 21 19 16 13 16 18 15 16 13 13 15 15 16 14 18 17 24 17 16 16 18 22 16 16 13 16 14 14 15 13 15 17 17 19 19 20 27 27 29
57 57 57 57 58 57 57 57 58 58 58 58 58 59 60 60 60 59 59 60 60 59 59 59 59 56 54 48 34 29 33 26 26 40 50 53 46 44 47 41 39 39 40 37 37 38 32 24 12 21 16 8 13 16 19 13 14 15 15 17 16 17 18 18 20 22 20 17 19 20 17 15 16 14 18 16 17 17 16 15 16 19 19 18 17 19 21 23
57 57 57 57 57 57 57 57 58 59 59 59 59 60 60 60 60 59 59 59 59 58 59 59 60 57 56 47 41 31 24 31 39 41 41 41 41 40 41 38 41 36 40 40 43 35 31 23 27 16 5 16 18 15 17 8 5 18 15 17 16 17 18 18 20 19 24 22 24 16 13 15 18 18 18 16 16 17 18 18 17 18 17 17 17 18 18 18
56 57 57 57 57 57 57 58 58 59 59 58 59 60 60 60 59 59 59 59 59 59 59 60 60 54 46 41 38 24 29 41 46 40 41 42 42 37 39 41 40 37 34 36 40 40 30 27 26 25 20 18 17 13 18 13 9 16 16 16 14 16 17 19 16 16 17 20 25 18 15 17 21 19 11 14 16 17 18 16 16 17 17 17 17 17 17 18
56 56 56 57 57 57 57 58 58 58 59 59 59 59 58 58 58 59 58 57 58 59 59 58 58 50 46 43 32 18 34 39 40 41 44 43 41 38 40 41 42 36 35 38 38 39 39 40 35 39 29 14 23 17 15 17 16 15 16 15 15 15 15 18 16 15 15 13 22 17 18 23 23 19 14 13 16 19 16 16 16 17 17 16 18 18 20 20
56 56 56 57 57 57 58 57 57 58 59 59 58 58 57 57 58 58 58 57 59 59 58 58 56 51 39 32 29 29 40 42 42 42 45 43 40 40 43 45 41 38 32 34 38 41 40 38 40 30 15 23 14 16 15 18 16 15 10 6 12 13 13 14 13 15 14 12 20 19 17 19 21 16 17 18 21 19 16 16 17 16 16 17 18 18 18 18
56 56 56 57 57 57 57 57 57 58 59 60 58 57 56 56 57 57 58 56 58 59 59 58 54 49 39 29 29 38 43 47 42 45 44 44 42 42 44 46 45 41 39 38 39 42 43 40 35 26 30 24 15 10 14 16 14 14 13 9 9 17 14 16 16 18 17 16 19 16 10 11 16 18 18 19 20 17 16 16 16 16 15 16 17 17 18 18
56 56 56 56 57 57 57 57 57 58 59 59 56 56 57 58 56 57 58 56 59 60 58 57 50 45 37 26 37 44 48 42 43 39 43 44 38 39 33 40 47 46 44 42 42 44 40 38 32 30 36 27 18 26 12 13 15 12 11 18 11 11 12 18 20 18 16 19 19 18 12 11 12 13 16 19 22 16 15 15 15 14 15 16 18 18 18 18
56 56 56 56 56 56 57 56 57 58 58 57 56 56 56 56 57 57 58 56 58 59 59 59 53 46 32 30 43 47 54 41 38 40 45 41 39 33 32 40 42 46 45 42 42 47 42 38 33 28 20 31 24 19 16 19 18 20 16 17 22 14 14 20 21 18 14 18 20 15 15 12 12 13 16 21 20 16 14 14 14 15 14 14 16 16 18 17
56 56 56 56 56 56 56 57 57 57 57 56 56 56 56 57 57 56 57 56 56 57 56 50 46 39 33 30 37 49 44 38 36 42 43 44 41 36 39 43 45 44 45 41 48 47 41 36 27 23 27 33 30 22 23 21 19 24 20 17 18 16 16 17 18 23 25 21 21 17 14 14 14 15 16 18 20 20 15 15 15 14 14 14 14 15 17 20
56 56 56 55 56 56 56 57 57 57 56 56 56 55 57 58 57 57 58 59 54 55 50 41 45 44 30 37 43 38 36 41 43 41 43 45 42 42 43 40 39 44 45 41 40 37 37 35 33 28 33 31 31 28 18 20 19 20 24 14 22 16 17 17 19 22 23 21 18 19 15 15 15 15 17 19 20 18 18 16 15 14 14 15 18 20 18 21
55 55 55 55 56 55 56 57 57 56 56 56 56 55 53 57 57 52 49 52 54 52 50 50 42 34 23 40 29 33 39 43 41 40 43 44 44 44 42 39 39 41 40 35 33 35 36 30 33 19 26 27 29 28 19 16 20 19 22 20 18 25 21 17 19 20 18 19 18 19 17 16 17 17 18 18 19 17 16 16 16 14 14 15 18 19 19 22
55 55 54 55 55 55 56 57 56 56 56 56 56 58 58 57 51 43 43 46 39 37 40 39 36 27 25 28 37 38 39 40 44 41 38 42 44 45 45 43 42 33 32 32 29 34 34 31 30 24 17 23 24 27 22 23 27 25 25 23 23 23 23 22 21 22 20 19 20 19 17 17 17 17 18 18 18 17 16 16 18 21 24 23 22 23 26 27
54 54 54 54 55 55 56 56 56 56 55 52 49 42 43 32 41 32 36 41 39 38 41 37 41 39 32 33 34 38 41 46 38 39 40 41 43 44 43 40 39 37 34 25 32 34 35 24 19 18 21 26 27 28 27 28 28 28 27 26 25 25 26 26 21 20 22 20 19 19 18 18 18 19 19 19 18 18 18 17 18 18 23 27 26 26 29 29
54 53 54 54 54 55 56 56 56 56 56 49 43 30 24 39 34 24 31 37 37 42 37 36 38 35 30 34 38 40 41 40 41 40 38 42 44 41 35 36 33 30 31 32 32 35 30 22 20 24 26 27 27 27 29 27 29 28 25 25 25 26 23 25 23 21 20 21 21 21 20 20 20 20 20 20 17 17 16 16 16 16 19 23 28 28 28 27
54 54 53 54 54 55 56 56 56 56 51 49 37 29 39 42 43 39 33 28 34 40 41 40 42 39 41 39 40 40 40 36 31 33 39 43 41 32 34 35 32 26 32 34 30 26 24 20 22 27 29 29 30 29 29 27 25 26 25 25 23 22 25 24 22 26 23 24 21 22 21 20 20 21 22 21 16 17 18 17 18 18 20 22 24 27 30 30
53 53 53 53 54 54 55 56 56 55 50 47 45 44 43 45 43 43 39 33 29 34 36 39 38 38 36 39 42 44 32 28 26 33 34 40 35 37 36 34 32 30 31 32 25 24 20 20 27 30 29 28 27 27 27 25 26 24 23 22 20 23 19 18 23 26 26 24 22 23 22 21 23 24 18 20 17 22 29 24 23 25 23 23 23 24 27 29
51 53 53 53 54 55 56 56 55 48 45 47 45 42 43 43 43 46 42 29 26 27 33 35 39 38 35 31 33 36 31 30 29 30 37 38 35 35 35 33 30 29 27 29 29 28 24 27 30 30 29 28 26 25 26 25 24 23 24 21 20 20 19 17 19 26 27 25 25 23 22 23 26 23 22 19 22 22 24 25 26 26 30 31 32 30 30 27
53 53 53 54 54 54 55 53 44 41 44 39 39 42 42 43 42 44 34 31 27 30 37 42 38 36 33 41 42 37 35 34 32 32 36 38 37 31 32 34 30 25 26 26 25 23 22 27 30 29 28 28 27 22 22 23 23 23 23 22 21 20 22 23 25 25 21 20 23 21 11 15 24 22 24 23 21 18 20 23 22 24 26 28 26 27 29 32
52 53 53 54 54 55 54 41 38 44 42 36 38 43 42 43 42 40 31 23 17 26 33 27 42 31 37 31 39 36 36 29 31 35 41 37 41 31 31 28 31 26 29 25 22 21 21 27 29 29 27 27 25 23 24 21 20 21 21 24 25 24 24 24 25 20 16 13 18 20 6 4 20 16 20 24 22 20 22 23 25 26 28 28 27 27 26 27
52 53 53 53 54 54 36 36 37 38 30 31 42 42 42 42 43 44 20 21 13 19 28 31 35 30 38 37 38 38 21 22 39 40 34 38 36 40 28 28 27 25 27 24 23 19 29 28 27 25 25 25 26 24 26 24 21 20 25 26 26 25 24 24 24 19 18 21 20 19 17 10 12 20 23 25 21 19 23 24 26 24 25 26 27 26 27 29
52 53 52 54 54 53 32 39 35 33 34 43 43 41 41 42 44 35 26 -1 -2 29 30 31 36 42 38 38 38 28 29 35 25 26 35 36 40 36 34 30 24 24 24 25 17 24 29 27 27 26 23 21 20 22 25 26 22 22 26 26 25 26 25 25 24 24 23 17 15 20 19 14 15 21 23 21 15 18 19 20 21 23 26 26 26 27 27 28
52 52 53 53 54 51 47 40 32 31 43 42 40 41 43 42 36 22 21 4 7 27 35 28 37 38 38 37 34 35 33 34 23 26 37 40 38 36 28 31 30 30 29 31 24 24 25 27 27 27 24 19 24 25 25 26 24 27 27 27 27 26 26 25 23 23 21 12 11 16 15 9 16 21 20 19 17 18 19 20 21 23 25 26 28 27 29 29
52 51 53 53 52 41 39 38 38 41 40 39 41 41 41 32 26 24 4 -1 27 8 32 34 33 27 35 31 30 32 29 30 33 35 36 31 31 38 35 36 31 28 25 29 28 25 29 34 32 26 25 25 25 25 26 26 27 29 27 27 27 26 23 22 23 21 18 12 17 18 16 12 9 20 18 18 18 20 21 20 21 23 24 25 27 29 31 30
52 51 50 48 40 35 33 21 31 40 40 41 41 42 35 27 24 15 1 6 23 20 31 30 30 35 32 28 21 27 30 32 31 32 28 32 26 31 32 28 33 28 27 27 26 27 30 29 27 26 32 28 26 27 28 28 28 27 26 24 23 24 22 18 15 14 14 11 19 20 16 18 7 13 18 21 21 21 19 19 20 21 22 24 26 28 28 28
52 51 48 45 43 42 36 22 38 40 41 41 41 35 25 6 24 -0 -1 23 11 20 20 24 31 31 27 29 27 27 27 28 30 29 26 25 24 23 24 24 23 15 15 20 19 29 30 26 28 30 32 29 28 26 27 27 27 25 24 24 16 14 14 13 14 12 11 9 18 16 18 13 13 17 16 16 16 17 19 19 20 21 22 25 27 29 31 33
51 51 48 45 44 36 36 41 41 41 42 43 38 31 23 17 -3 17 9 13 8 25 20 29 26 26 25 21 20 27 28 20 26 28 29 26 26 26 25 24 24 24 14 18 22 21 22 27 29 30 29 32 27 20 19 21 23 23 20 18 14 7 4 2 6 8 8 16 21 17 20 14 18 18 19 16 16 16 18 20 22 23 23 25 27 28 30 31
51 48 39 42 42 40 39 42 40 41 44 41 31 19 20 5 3 28 11 13 11 22 29 29 30 22 22 23 28 27 21 26 27 26 25 20 25 25 28 28 25 25 23 22 16 18 10 11 23 28 27 26 27 23 20 20 23 23 22 21 16 12 4 2 6 5 4 14 17 21 11 16 12 15 19 19 18 17 19 25 27 26 25 25 27 30 31 32
49 44 42 43 40 40 41 40 41 43 42 36 28 24 12 12 16 12 12 13 17 26 26 25 28 20 20 23 24 27 26 22 29 23 25 24 19 21 24 24 25 25 24 18 18 14 16 17 24 28 27 27 26 27 27 26 24 24 25 24 21 13 18 11 11 9 10 11 15 14 14 18 16 21 25 23 20 20 21 23 24 23 25 28 26 29 32 34
49 41 43 41 41 40 40 42 40 43 38 33 27 16 15 20 13 17 19 25 26 21 22 22 25 21 21 22 22 25 29 20 23 19 19 21 22 19 22 24 22 24 23 17 21 12 15 14 26 27 26 24 24 25 25 26 18 21 21 14 16 21 22 15 13 14 13 14 13 15 17 21 22 20 22 21 19 17 19 20 21 22 25 27 27 30 33 34
41 40 30 38 36 41 39 42 43 40 33 30 28 12 24 18 22 25 35 23 20 26 21 18 15 18 14 17 21 25 21 22 20 21 16 22 15 21 23 23 26 28 25 23 17 21 9 13 25 26 22 26 25 26 27 27 26 23 17 18 24 26 22 15 11 8 7 8 14 16 14 17 16 16 26 18 18 16 18 18 18 25 27 25 28 31 33 31
39 39 37 40 36 40 40 41 42 37 33 28 13 31 20 15 22 29 31 31 28 28 24 18 16 24 15 18 19 25 24 17 23 16 15 19 15 26 26 24 26 27 26 26 19 18 16 10 20 27 26 27 27 26 25 29 28 26 22 23 21 15 15 16 12 8 7 5 8 17 19 20 17 20 20 16 17 16 17 19 22 23 24 26 28 30 31 32
37 36 28 35 41 40 40 41 40 34 27 13 15 19 26 21 27 32 31 32 31 28 22 22 18 17 18 19 22 24 24 15 20 19 13 16 15 23 24 25 21 26 25 25 18 22 20 8 17 24 25 25 25 20 15 22 22 22 27 22 20 22 15 14 13 13 17 6 8 16 16 12 22 22 19 16 18 17 17 20 21 23 25 26 28 30 30 31
35 29 27 40 40 40 41 41 35 29 25 12 20 21 22 21 27 31 31 33 29 25 25 25 24 19 18 18 25 23 23 22 21 20 19 20 22 24 26 26 23 23 25 25 22 23 19 16 4 16 22 21 19 21 18 22 18 18 21 18 18 16 21 18 15 15 14 7 7 6 11 19 23 24 20 17 16 18 18 21 24 24 25 27 28 30 31 31
35 31 30 39 40 39 38 33 30 23 23 20 21 20 22 19 26 30 31 32 32 31 28 28 25 19 20 19 21 23 22 23 22 21 19 19 20 16 26 24 26 22 23 21 19 18 16 17 11 20 15 18 20 23 24 23 22 20 21 19 21 17 14 11 15 13 11 12 9 6 14 19 22 27 21 20 20 19 20 23 24 25 25 26 28 29 30 30
24 10 17 37 40 40 31 21 20 22 21 19 15 22 22 34 24 27 27 26 30 29 29 28 28 25 22 21 22 23 20 19 20 19 21 19 25 25 26 26 26 25 21 20 18 22 21 19 15 11 16 18 23 24 25 23 21 18 21 19 22 20 20 12 7 12 11 11 10 11 8 17 24 27 24 21 22 20 21 24 24 25 25 25 27 28 29 30
29 20 26 40 40 36 28 20 29 25 18 22 25 27 26 24 24 26 25 25 22 27 28 27 27 22 22 22 20 18 22 19 22 19 21 22 22 25 28 26 27 26 23 20 21 18 29 12 9 15 18 21 22 23 24 23 22 20 20 21 18 18 18 19 18 17 13 10 10 9 7 17 24 25 28 26 26 25 26 26 24 25 26 29 30 30 29 30
31 31 24 37 41 36 24 7 17 17 20 19 24 26 27 23 24 21 21 22 24 24 29 27 25 26 22 25 21 18 22 16 23 24 23 23 23 27 25 25 25 24 20 18 20 23 13 14 15 6 8 10 15 20 19 18 17 19 18 21 20 21 20 21 19 16 11 15 16 15 7 13 24 27 26 24 22 21 22 22 27 25 27 30 30 31 31 31
29 29 28 33 36 29 18 23 25 20 24 19 18 19 22 23 26 25 23 24 29 24 28 28 27 25 22 21 18 19 17 18 14 19 23 24 25 26 23 25 27 25 29 31 35 29 16 16 11 3 -2 -5 -7 -5 3 13 20 21 21 23 22 21 20 17 12 11 10 12 15 8 11 17 20 22 20 24 22 21 22 24 25 26 26 26 28 31 31 31
24 3 20 20 28 29 28 28 26 23 20 17 14 18 22 22 26 28 27 25 29 28 25 27 25 25 24 21 17 16 16 17 15 14 21 22 24 25 25 24 27 27 33 31 32 22 13 17 15 17 13 10 12 17 20 22 18 14 16 21 21 21 22 21 19 13 15 13 17 18 18 18 15 15 17 19 21 22 24 24 23 23 24 26 28 29 31 31
21 11 19 6 18 23 23 24 23 21 17 22 10 18 16 22 23 22 23 18 26 24 21 25 25 21 20 21 18 17 17 17 16 15 16 23 25 25 24 25 24 31 35 33 31 17 12 13 18 16 18 17 20 22 22 23 18 20 18 19 22 21 22 20 19 18 21 17 15 20 22 17 15 15 18 18 22 24 23 22 21 23 25 26 27 28 32 29
12 16 16 12 10 9 17 12 24 25 27 21 18 20 19 23 22 19 22 25 24 22 19 20 26 25 25 23 22 16 17 14 14 14 21 23 21 22 22 24 23 29 29 25 26 19 16 11 16 17 17 19 21 22 23 23 22 21 20 20 20 22 21 20 20 21 18 14 12 16 22 19 18 18 20 21 23 20 20 21 22 22 24 25 26 26 26 27
20 20 18 24 18 18 20 21 26 25 23 22 25 22 20 20 20 23 20 21 20 20 23 17 20 26 26 26 21 17 17 12 14 14 15 18 20 21 20 21 23 24 22 17 16 16 16 12 15 17 16 17 19 21 22 21 21 20 21 21 21 22 22 21 21 21 20 19 20 20 21 21 20 20 20 21 23 22 21 23 25 25 25 26 26 26 27 27
16 18 13 23 22 19 22 24 26 21 16 23 12 17 22 22 18 22 23 17 17 18 25 20 21 24 25 26 23 22 23 20 18 14 20 22 18 22 21 22 20 21 20 15 15 13 15 13 22 11 10 13 15 21 20 20 20 17 18 20 21 22 22 22 21 21 22 22 22 22 22 21 21 21 22 23 24 24 25 24 24 25 26 26 26 27 27 28
30 29 26 17 9 14 23 23 23 23 18 16 11 17 22 22 21 24 23 23 20 20 22 22 23 25 26 25 25 26 26 24 23 24 25 24 17 24 19 17 23 20 21 17 16 14 13 11 12 9 8 11 13 18 19 18 20 18 19 19 19 20 19 20 20 22 20 19 19 18 18 18 20 22 23 23 24 24 23 24 25 26 27 27 27 27 27 28
30 32 31 26 15 24 18 21 20 10 6 20 18 17 21 22 23 22 20 26 27 24 25 24 24 26 24 25 27 28 27 27 28 29 27 25 28 26 26 24 23 22 21 18 19 15 15 13 10 10 7 8 10 16 16 12 12 13 14 15 17 18 20 20 22 23 22 21 18 17 17 19 19 23 20 19 22 24 24 24 25 24 26 28 27 27 28 28